Time,TemperatureF,DewpointF,PressureIn,WindDirection,WindDirectionDegrees,WindSpeedMPH,WindSpeedGustMPH,Humidity,HourlyPrecipIn,Conditions,Clouds,dailyrainin,SoftwareType,DateUTC
2013-01-24 00:02:00,46.0,9.0,29.90,West,267,5.0,15.0,22,0.00,,,0.00,,2013-01-24 07:02:00,
2013-01-24 00:12:00,46.0,9.0,29.90,West,267,5.0,15.0,22,0.00,,,0.00,,2013-01-24 07:12:00,
2013-01-24 00:22:00,47.0,8.0,29.90,SW,214,1.0,7.0,20,0.00,,,0.00,,2013-01-24 07:22:00,
2013-01-24 00:32:00,44.0,10.0,29.89,SW,215,1.0,5.0,25,0.00,,,0.00,,2013-01-24 07:32:00,
2013-01-24 00:42:00,44.0,10.0,29.89,SW,215,1.0,5.0,25,0.00,,,0.00,,2013-01-24 07:42:00,
2013-01-24 00:52:00,41.0,8.0,29.86,WNW,296,3.0,8.0,25,0.00,,,0.00,,2013-01-24 07:52:00,
2013-01-24 01:01:00,44.0,9.0,29.85,NE,35,5.0,9.0,23,0.00,,,0.00,,2013-01-24 08:01:00,
2013-01-24 01:12:00,44.0,9.0,29.85,NE,35,5.0,9.0,23,0.00,,,0.00,,2013-01-24 08:12:00,
2013-01-24 01:22:00,44.0,9.0,29.85,NE,35,5.0,9.0,23,0.00,,,0.00,,2013-01-24 08:22:00,
2013-01-24 01:32:00,43.0,8.0,29.85,NW,323,5.0,14.0,23,0.00,,,0.00,,2013-01-24 08:32:00,
2013-01-24 01:42:00,43.0,8.0,29.85,NW,323,5.0,14.0,23,0.00,,,0.00,,2013-01-24 08:42:00,
2013-01-24 01:53:00,44.0,8.0,29.85,NNW,348,2.0,8.0,22,0.00,,,0.00,,2013-01-24 08:53:00,
2013-01-24 02:02:00,44.0,9.0,29.85,NE,39,0.0,10.0,23,0.00,,,0.00,,2013-01-24 09:02:00,
2013-01-24 02:12:00,44.0,9.0,29.85,NE,39,0.0,10.0,23,0.00,,,0.00,,2013-01-24 09:12:00,
2013-01-24 02:22:00,44.0,9.0,29.83,NNE,32,7.0,9.0,23,0.00,,,0.00,,2013-01-24 09:22:00,
2013-01-24 02:32:00,43.0,9.0,29.84,SSE,148,10.0,19.0,24,0.00,,,0.00,,2013-01-24 09:32:00,
2013-01-24 02:42:00,43.0,9.0,29.84,SSE,148,10.0,19.0,24,0.00,,,0.00,,2013-01-24 09:42:00,
2013-01-24 02:52:00,44.0,9.0,29.84,West,270,8.0,18.0,23,0.00,,,0.00,,2013-01-24 09:52:00,
2013-01-24 03:02:00,44.0,10.0,29.83,South,173,7.0,14.0,24,0.00,,,0.00,,2013-01-24 10:02:00,
2013-01-24 03:12:00,44.0,10.0,29.83,South,173,7.0,14.0,24,0.00,,,0.00,,2013-01-24 10:12:00,
2013-01-24 03:22:00,42.0,10.0,29.83,SSW,205,3.0,6.0,26,0.00,,,0.00,,2013-01-24 10:22:00,
2013-01-24 03:32:00,41.0,9.0,29.82,ENE,74,6.0,11.0,26,0.00,,,0.00,,2013-01-24 10:32:00,
2013-01-24 03:42:00,41.0,9.0,29.82,ENE,74,6.0,11.0,26,0.00,,,0.00,,2013-01-24 10:42:00,
2013-01-24 03:52:00,43.0,8.0,29.80,East,99,10.0,18.0,23,0.00,,,0.00,,2013-01-24 10:52:00,
2013-01-24 04:02:00,47.0,9.0,29.79,SSE,148,10.0,19.0,21,0.00,,,0.00,,2013-01-24 11:02:00,
2013-01-24 04:12:00,47.0,9.0,29.79,SSE,148,10.0,19.0,21,0.00,,,0.00,,2013-01-24 11:12:00,
2013-01-24 04:22:00,49.0,7.0,29.79,NNE,12,5.0,14.0,18,0.00,,,0.00,,2013-01-24 11:22:00,
2013-01-24 04:32:00,49.0,10.0,29.78,ENE,67,5.0,16.0,20,0.00,,,0.00,,2013-01-24 11:32:00,
2013-01-24 04:42:00,49.0,10.0,29.78,ENE,67,5.0,16.0,20,0.00,,,0.00,,2013-01-24 11:42:00,
2013-01-24 04:52:00,49.0,10.0,29.78,ENE,67,5.0,16.0,20,0.00,,,0.00,,2013-01-24 11:52:00,
2013-01-24 05:03:00,48.0,10.0,29.76,NE,38,9.0,14.0,21,0.00,,,0.00,,2013-01-24 12:03:00,
2013-01-24 05:12:00,48.0,10.0,29.76,NE,38,9.0,14.0,21,0.00,,,0.00,,2013-01-24 12:12:00,
2013-01-24 05:22:00,49.0,12.0,29.74,SE,134,20.0,45.0,22,0.00,,,0.00,,2013-01-24 12:22:00,
2013-01-24 05:32:00,50.0,13.0,29.75,ESE,114,19.0,46.0,22,0.00,,,0.00,,2013-01-24 12:32:00,
2013-01-24 05:42:00,50.0,13.0,29.75,ESE,114,19.0,46.0,22,0.00,,,0.00,,2013-01-24 12:42:00,
2013-01-24 05:52:00,50.0,14.0,29.75,East,98,15.0,45.0,23,0.00,,,0.00,,2013-01-24 12:52:00,
2013-01-24 06:02:00,49.0,16.0,29.75,ENE,74,16.0,29.0,26,0.00,,,0.00,,2013-01-24 13:02:00,
2013-01-24 06:12:00,49.0,16.0,29.75,ENE,74,16.0,29.0,26,0.00,,,0.00,,2013-01-24 13:12:00,
2013-01-24 06:22:00,49.0,17.0,29.73,East,99,23.0,44.0,28,0.00,,,0.00,,2013-01-24 13:22:00,
2013-01-24 06:32:00,48.0,17.0,29.77,SSE,149,17.0,34.0,29,0.00,,,0.00,,2013-01-24 13:32:00,
2013-01-24 06:42:00,48.0,17.0,29.77,SSE,149,17.0,34.0,29,0.00,,,0.00,,2013-01-24 13:42:00,
2013-01-24 06:52:00,47.0,18.0,29.75,SSE,148,11.0,31.0,31,0.00,,,0.00,,2013-01-24 13:52:00,
2013-01-24 07:02:00,49.0,19.0,29.75,ENE,73,23.0,47.0,30,0.00,,,0.00,,2013-01-24 14:02:00,
2013-01-24 07:12:00,49.0,19.0,29.75,ENE,73,23.0,47.0,30,0.00,,,0.00,,2013-01-24 14:12:00,
2013-01-24 07:22:00,49.0,19.0,29.75,ENE,73,23.0,47.0,30,0.00,,,0.00,,2013-01-24 14:22:00,
2013-01-24 07:33:00,45.0,20.0,29.73,East,88,17.0,41.0,36,0.00,,,0.00,,2013-01-24 14:33:00,
2013-01-24 07:43:00,45.0,20.0,29.73,East,88,17.0,41.0,36,0.00,,,0.00,,2013-01-24 14:43:00,
2013-01-24 07:54:00,46.0,20.0,29.76,ESE,104,11.0,36.0,35,0.00,,,0.00,,2013-01-24 14:54:00,
2013-01-24 08:03:00,46.0,19.0,29.77,East,82,12.0,25.0,34,0.00,,,0.00,,2013-01-24 15:03:00,
2013-01-24 08:12:00,46.0,19.0,29.77,East,82,12.0,25.0,34,0.00,,,0.00,,2013-01-24 15:12:00,
2013-01-24 08:22:00,46.0,19.0,29.78,East,86,22.0,35.0,33,0.00,,,0.00,,2013-01-24 15:22:00,
2013-01-24 08:33:00,46.0,19.0,29.78,East,86,22.0,35.0,33,0.00,,,0.00,,2013-01-24 15:33:00,
2013-01-24 08:42:00,46.0,19.0,29.78,ESE,113,13.0,27.0,34,0.00,,,0.00,,2013-01-24 15:42:00,
2013-01-24 08:52:00,46.0,19.0,29.77,SE,144,16.0,29.0,33,0.00,,,0.00,,2013-01-24 15:52:00,
2013-01-24 09:02:00,47.0,18.0,29.77,SSE,167,16.0,37.0,31,0.00,,,0.00,,2013-01-24 16:02:00,
2013-01-24 09:12:00,47.0,18.0,29.77,SSE,167,16.0,37.0,31,0.00,,,0.00,,2013-01-24 16:12:00,
2013-01-24 09:22:00,48.0,19.0,29.72,North,355,25.0,43.0,31,0.00,,,0.00,,2013-01-24 16:22:00,
2013-01-24 09:33:00,48.0,19.0,29.74,WSW,248,14.0,47.0,31,0.00,,,0.00,,2013-01-24 16:33:00,
2013-01-24 09:42:00,48.0,19.0,29.74,WSW,248,14.0,47.0,31,0.00,,,0.00,,2013-01-24 16:42:00,
2013-01-24 10:01:00,49.0,20.0,29.79,WSW,244,17.0,36.0,31,0.00,,,0.00,,2013-01-24 17:01:00,
2013-01-24 10:11:00,49.0,20.0,29.79,WSW,244,17.0,36.0,31,0.00,,,0.00,,2013-01-24 17:11:00,
2013-01-24 10:21:00,49.0,20.0,29.79,WSW,244,17.0,36.0,31,0.00,,,0.00,,2013-01-24 17:21:00,
2013-01-24 10:32:00,46.0,21.0,29.75,East,86,16.0,33.0,37,0.00,,,0.00,,2013-01-24 17:32:00,
2013-01-24 10:42:00,46.0,21.0,29.75,East,86,16.0,33.0,37,0.00,,,0.00,,2013-01-24 17:42:00,
2013-01-24 10:52:00,47.0,21.0,29.72,NNE,26,30.0,42.0,36,0.00,,,0.00,,2013-01-24 17:52:00,
2013-01-24 11:02:00,48.0,21.0,29.71,SSE,153,6.0,25.0,34,0.00,,,0.00,,2013-01-24 18:02:00,
2013-01-24 11:11:00,49.0,20.0,29.71,SE,134,8.0,41.0,32,0.00,,,0.00,,2013-01-24 18:11:00,
2013-01-24 11:22:00,49.0,20.0,29.71,SE,134,8.0,41.0,32,0.00,,,0.00,,2013-01-24 18:22:00,
2013-01-24 11:32:00,50.0,21.0,29.67,WNW,292,32.0,60.0,32,0.00,,,0.00,,2013-01-24 18:32:00,
2013-01-24 11:42:00,50.0,21.0,29.67,WNW,292,32.0,60.0,32,0.00,,,0.00,,2013-01-24 18:42:00,
2013-01-24 11:52:00,50.0,22.0,29.75,WNW,295,24.0,66.0,33,0.00,,,0.00,,2013-01-24 18:52:00,
2013-01-24 12:01:00,50.0,21.0,29.71,West,267,32.0,58.0,32,0.00,,,0.00,,2013-01-24 19:01:00,
2013-01-24 12:12:00,50.0,21.0,29.71,West,267,32.0,58.0,32,0.00,,,0.00,,2013-01-24 19:12:00,
2013-01-24 12:21:00,51.0,21.0,29.73,WSW,258,24.0,52.0,31,0.00,,,0.00,,2013-01-24 19:21:00,
2013-01-24 12:32:00,52.0,22.0,29.74,NNW,336,18.0,46.0,30,0.00,,,0.00,,2013-01-24 19:32:00,
2013-01-24 12:41:00,52.0,22.0,29.74,NNW,336,18.0,46.0,30,0.00,,,0.00,,2013-01-24 19:41:00,
2013-01-24 12:51:00,51.0,21.0,29.69,East,83,19.0,49.0,30,0.00,,,0.00,,2013-01-24 19:51:00,
2013-01-24 13:01:00,52.0,22.0,29.70,NW,310,29.0,52.0,30,0.00,,,0.00,,2013-01-24 20:01:00,
2013-01-24 13:11:00,52.0,22.0,29.70,NW,310,29.0,52.0,30,0.00,,,0.00,,2013-01-24 20:11:00,
2013-01-24 13:21:00,52.0,22.0,29.72,NW,313,22.0,44.0,30,0.00,,,0.00,,2013-01-24 20:21:00,
2013-01-24 13:32:00,52.0,21.0,29.75,SSW,192,11.0,39.0,29,0.00,,,0.00,,2013-01-24 20:32:00,
2013-01-24 13:42:00,52.0,21.0,29.75,SSW,192,11.0,39.0,29,0.00,,,0.00,,2013-01-24 20:42:00,
2013-01-24 13:52:00,51.0,21.0,29.71,West,261,27.0,46.0,30,0.00,,,0.00,,2013-01-24 20:52:00,
2013-01-24 14:02:00,51.0,21.0,29.75,WSW,238,25.0,58.0,30,0.00,,,0.00,,2013-01-24 21:02:00,
2013-01-24 14:11:00,51.0,21.0,29.75,WSW,238,25.0,58.0,30,0.00,,,0.00,,2013-01-24 21:11:00,
2013-01-24 14:22:00,51.0,21.0,29.75,East,85,17.0,51.0,31,0.00,,,0.00,,2013-01-24 21:22:00,
2013-01-24 14:32:00,51.0,22.0,29.78,WNW,294,22.0,37.0,32,0.00,,,0.00,,2013-01-24 21:32:00,
2013-01-24 14:42:00,51.0,22.0,29.78,WNW,294,22.0,37.0,32,0.00,,,0.00,,2013-01-24 21:42:00,
2013-01-24 14:52:00,51.0,21.0,29.82,West,274,10.0,23.0,30,0.00,,,0.00,,2013-01-24 21:52:00,
2013-01-24 15:02:00,52.0,20.0,29.82,WNW,284,21.0,34.0,28,0.00,,,0.00,,2013-01-24 22:02:00,
2013-01-24 15:11:00,52.0,20.0,29.82,WNW,284,21.0,34.0,28,0.00,,,0.00,,2013-01-24 22:11:00,
2013-01-24 15:21:00,50.0,21.0,29.82,SW,232,18.0,34.0,32,0.00,,,0.00,,2013-01-24 22:21:00,
2013-01-24 15:32:00,50.0,23.0,29.83,NNE,32,9.0,15.0,34,0.00,,,0.00,,2013-01-24 22:32:00,
2013-01-24 15:42:00,50.0,23.0,29.83,NNE,32,9.0,15.0,34,0.00,,,0.00,,2013-01-24 22:42:00,
2013-01-24 15:53:00,50.0,19.0,29.82,West,267,5.0,15.0,29,0.00,,,0.00,,2013-01-24 22:53:00,
2013-01-24 16:01:00,50.0,21.0,29.83,SE,129,6.0,10.0,32,0.00,,,0.00,,2013-01-24 23:01:00,
2013-01-24 16:11:00,50.0,21.0,29.83,SE,129,6.0,10.0,32,0.00,,,0.00,,2013-01-24 23:11:00,
2013-01-24 16:21:00,48.0,21.0,29.84,SE,133,11.0,15.0,34,0.00,,,0.00,,2013-01-24 23:21:00,
2013-01-24 16:31:00,47.0,19.0,29.83,WSW,244,4.0,7.0,33,0.00,,,0.00,,2013-01-24 23:31:00,
2013-01-24 16:42:00,47.0,19.0,29.83,WSW,244,4.0,7.0,33,0.00,,,0.00,,2013-01-24 23:42:00,
2013-01-24 16:52:00,46.0,21.0,29.85,South,181,10.0,20.0,36,0.00,,,0.00,,2013-01-24 23:52:00,
2013-01-24 17:01:00,46.0,21.0,29.85,South,181,10.0,20.0,36,0.00,,,0.00,,2013-01-25 00:01:00,
2013-01-24 17:12:00,46.0,21.0,29.85,South,181,10.0,20.0,36,0.00,,,0.00,,2013-01-25 00:12:00,
2013-01-24 17:21:00,44.0,20.0,29.87,SSW,211,13.0,21.0,38,0.00,,,0.00,,2013-01-25 00:21:00,
2013-01-24 17:32:00,44.0,20.0,29.86,SSE,165,7.0,12.0,38,0.00,,,0.00,,2013-01-25 00:32:00,
2013-01-24 17:42:00,44.0,20.0,29.86,SSE,165,7.0,12.0,38,0.00,,,0.00,,2013-01-25 00:42:00,
2013-01-24 17:52:00,43.0,20.0,29.86,South,174,10.0,18.0,39,0.00,,,0.00,,2013-01-25 00:52:00,
2013-01-24 18:01:00,43.0,19.0,29.88,South,184,9.0,13.0,38,0.00,,,0.00,,2013-01-25 01:01:00,
2013-01-24 18:11:00,43.0,19.0,29.88,South,184,9.0,13.0,38,0.00,,,0.00,,2013-01-25 01:11:00,
2013-01-24 18:21:00,43.0,20.0,29.88,South,186,7.0,17.0,39,0.00,,,0.00,,2013-01-25 01:21:00,
2013-01-24 18:31:00,43.0,20.0,29.88,SW,220,10.0,22.0,39,0.00,,,0.00,,2013-01-25 01:31:00,
2013-01-24 18:41:00,43.0,20.0,29.88,SW,220,10.0,22.0,39,0.00,,,0.00,,2013-01-25 01:41:00,
2013-01-24 18:52:00,44.0,18.0,29.87,WSW,249,17.0,26.0,35,0.00,,,0.00,,2013-01-25 01:52:00,
2013-01-24 19:01:00,44.0,18.0,29.88,WSW,253,17.0,28.0,35,0.00,,,0.00,,2013-01-25 02:01:00,
2013-01-24 19:11:00,44.0,18.0,29.88,WSW,253,17.0,28.0,35,0.00,,,0.00,,2013-01-25 02:11:00,
2013-01-24 19:22:00,44.0,17.0,29.88,WSW,256,14.0,24.0,33,0.00,,,0.00,,2013-01-25 02:22:00,
2013-01-24 19:31:00,44.0,18.0,29.89,SW,229,10.0,28.0,35,0.00,,,0.00,,2013-01-25 02:31:00,
2013-01-24 19:42:00,44.0,18.0,29.89,SW,229,10.0,28.0,35,0.00,,,0.00,,2013-01-25 02:42:00,
2013-01-24 19:52:00,42.0,18.0,29.90,SSW,206,15.0,22.0,38,0.00,,,0.00,,2013-01-25 02:52:00,
2013-01-24 20:01:00,42.0,18.0,29.90,SSW,206,15.0,22.0,38,0.00,,,0.00,,2013-01-25 03:01:00,
2013-01-24 20:12:00,43.0,19.0,29.90,SW,231,16.0,25.0,37,0.00,,,0.00,,2013-01-25 03:12:00,
2013-01-24 20:21:00,43.0,19.0,29.90,SW,231,16.0,25.0,37,0.00,,,0.00,,2013-01-25 03:21:00,
2013-01-24 20:32:00,43.0,19.0,29.90,SW,215,17.0,28.0,37,0.00,,,0.00,,2013-01-25 03:32:00,
2013-01-24 20:41:00,43.0,19.0,29.90,SW,215,17.0,28.0,37,0.00,,,0.00,,2013-01-25 03:41:00,
2013-01-24 20:52:00,43.0,19.0,29.89,SSW,211,22.0,31.0,37,0.00,,,0.00,,2013-01-25 03:52:00,
2013-01-24 21:02:00,43.0,17.0,29.88,SW,229,23.0,31.0,34,0.00,,,0.00,,2013-01-25 04:02:00,
2013-01-24 21:11:00,43.0,17.0,29.88,SW,229,23.0,31.0,34,0.00,,,0.00,,2013-01-25 04:11:00,
2013-01-24 21:22:00,42.0,19.0,29.89,South,188,12.0,26.0,39,0.00,,,0.00,,2013-01-25 04:22:00,
2013-01-24 21:31:00,42.0,15.0,29.88,SW,230,12.0,21.0,33,0.00,,,0.00,,2013-01-25 04:31:00,
2013-01-24 21:41:00,42.0,15.0,29.88,SW,230,12.0,21.0,33,0.00,,,0.00,,2013-01-25 04:41:00,
2013-01-24 21:51:00,39.0,18.0,29.90,West,269,2.0,7.0,42,0.00,,,0.00,,2013-01-25 04:51:00,
2013-01-24 22:03:00,38.0,19.0,29.90,NW,306,2.0,5.0,45,0.00,,,0.00,,2013-01-25 05:03:00,
2013-01-24 22:12:00,34.0,19.0,29.90,West,278,3.0,6.0,54,0.00,,,0.00,,2013-01-25 05:12:00,
2013-01-24 22:32:00,34.0,19.0,29.91,West,279,1.0,5.0,53,0.00,,,0.00,,2013-01-25 05:32:00,
2013-01-24 22:51:00,35.0,18.0,29.91,NW,313,6.0,12.0,49,0.00,,,0.00,,2013-01-25 05:51:00,
2013-01-24 23:02:00,36.0,18.0,29.91,WNW,298,6.0,9.0,47,0.00,,,0.00,,2013-01-25 06:02:00,
2013-01-24 23:21:00,36.0,17.0,29.91,WNW,303,5.0,8.0,46,0.00,,,0.00,,2013-01-25 06:21:00,
2013-01-24 23:31:00,36.0,17.0,29.91,WNW,300,5.0,9.0,46,0.00,,,0.00,,2013-01-25 06:31:00,
2013-01-24 23:41:00,36.0,17.0,29.91,WNW,300,5.0,9.0,46,0.00,,,0.00,,2013-01-25 06:41:00,
2013-01-24 23:51:00,36.0,18.0,29.92,NW,308,5.0,9.0,48,0.00,,,0.00,,2013-01-25 06:51:00,